Darstellungsparameter: Aktuell verwendete Einstellungen:
Skalierung der Graphiken ... ?
xyx+y,   Skalierungsfaktor:      Skalierung: Modus: x, Faktor: 1
Darstellungszeitraum ... ?
Vom - - bis: - -   Zeitraum: 01.01.2019 - 31.12.2019
Min/Max/Avg-Anzeige ... ?
Zeige MMA aktuell
Zeige MMA Monat
Zeige MMA alles
Zeige --A aktuell
Zeige --A Monat
Zeige --A alles
Keine MMA-Anzeige
MMA:
Average (ber die Originaldaten)
MMA-Basis: 01.01.2019 - 31.12.2019
Quicknavigation für Darstellung... ?
Tage:      1T, 2T, 3T, 5T -1T -2T -3T -5T +1T +2T +3T +5T
Wochen: 1W, 2W, 3W -1W -2W -3W +1W +2W +3W
Monate: 1M, 3M, 6M -1M -3M -6M +1M +3M +6M
Jahre:    1J, 3J, 5J, 10J -1J -3J -5J -10J +1J +3J +5J +10J
Nutze für die Darstellung ... ?
Originaldaten oder ...
Mittelwerte Minima Maxima auf...
Stundenbasis Tagesbasis Wochenbasis
Monatsbasis Jahresbasis      Datenbasis: Mittelwerte auf Tagesbasis
Darstellen als:
Statistik (Auto) Statistik J:M      Darstellung:
Zur Graphik,    zurück zur Übersicht aller Sensoren.
 
Tabellarische Datenbersicht: ?
 
Sensor: Nr:Datum:Temp:Feuchte:
Aussen-T/F 1 01-01-2019 00:00:00 6.345 C 45.5833 %
2 02-01-2019 00:00:00 2.72417 C 34.2083 %
3 03-01-2019 00:00:00 1.28167 C 47.5833 %
4 04-01-2019 00:00:00 2.41333 C 45.7833 %
5 05-01-2019 00:00:00 5.14417 C 47.4583 %
6 06-01-2019 00:00:00 5.0725 C 44.3083 %
7 07-01-2019 00:00:00 4.8875 C 41.5500 %
8 08-01-2019 00:00:00 5.74917 C 36.7000 %
9 09-01-2019 00:00:00 3.05083 C 34.6917 %
10 10-01-2019 00:00:00 1.36 C 32.5417 %
11 11-01-2019 00:00:00 2.05417 C 54.0417 %
12 12-01-2019 00:00:00 5.01833 C 46.3583 %
13 13-01-2019 00:00:00 6.9225 C 47.7417 %
14 14-01-2019 00:00:00 4.06833 C 43.5667 %
15 15-01-2019 00:00:00 4.06833 C 40.0333 %
16 16-01-2019 00:00:00 4.52583 C 35.3417 %
17 17-01-2019 00:00:00 4.27167 C 37.9583 %
18 18-01-2019 00:00:00 -0.2025 C 49.3250 %
19 19-01-2019 00:00:00 -3.87667 C 48.1333 %
20 20-01-2019 00:00:00 -6.33 C 47.2250 %
21 21-01-2019 00:00:00 -7.505 C 46.8917 %
22 22-01-2019 00:00:00 -5.97917 C 44.1750 %
23 23-01-2019 00:00:00 -2.435 C 39.5667 %
24 24-01-2019 00:00:00 -2.72417 C 26.7667 %
25 25-01-2019 00:00:00 -0.50917 C 39.3333 %
Sensor: Nr:Datum:Temp:Feuchte:
Aussen-T/F 26 26-01-2019 00:00:00 3.62167 C 45.9417 %
27 27-01-2019 00:00:00 4.94833 C 43.1917 %
28 28-01-2019 00:00:00 2.2025 C 45.2417 %
29 29-01-2019 00:00:00 0.865 C 44.1667 %
30 30-01-2019 00:00:00 -0.46833 C 49.8250 %
31 31-01-2019 00:00:00 -1.03333 C 52.2750 %
32 01-02-2019 00:00:00 0.72167 C 56.8333 %
33 02-02-2019 00:00:00 1.59587 C 62.5950 %
34 03-02-2019 00:00:00 1.86583 C 40.0750 %
35 04-02-2019 00:00:00 0.99417 C 40.5833 %
36 05-02-2019 00:00:00 3.66167 C 30.5917 %
37 06-02-2019 00:00:00 0.09417 C 46.8417 %
38 07-02-2019 00:00:00 4.26083 C 38.9917 %
39 08-02-2019 00:00:00 6.77417 C 31.6250 %
40 09-02-2019 00:00:00 8.02083 C 28.8667 %
41 10-02-2019 00:00:00 7.15083 C 39.6167 %
42 11-02-2019 00:00:00 4.03667 C 38.3917 %
43 12-02-2019 00:00:00 3.01917 C 38.2083 %
44 13-02-2019 00:00:00 0.96333 C 46.8167 %
45 14-02-2019 00:00:00 -0.46667 C 51.0250 %
46 15-02-2019 00:00:00 0.9925 C 45.0667 %
47 16-02-2019 00:00:00 1.9325 C 47.3750 %
48 17-02-2019 00:00:00 2.17333 C 49.1333 %
49 18-02-2019 00:00:00 2.31167 C 43.0500 %
50 19-02-2019 00:00:00 4.89 C 40.9750 %
Sensor: Nr:Datum:Temp:Feuchte:
Aussen-T/F 51 20-02-2019 00:00:00 3.7725 C 45.5000 %
52 21-02-2019 00:00:00 5.655 C 46.3667 %
53 22-02-2019 00:00:00 9.27167 C 39.5167 %
54 23-02-2019 00:00:00 4.58167 C 33.2583 %
55 24-02-2019 00:00:00 2.29833 C 32.9417 %
56 25-02-2019 00:00:00 3.65667 C 31.8250 %
57 26-02-2019 00:00:00 4.75583 C 37.6333 %
58 27-02-2019 00:00:00 5.17417 C 38.9250 %
59 28-02-2019 00:00:00 8.185 C 29.8833 %
60 01-03-2019 00:00:00 7.515 C 43.8250 %
61 02-03-2019 00:00:00 8.29333 C 34.1417 %
62 03-03-2019 00:00:00 10.72417 C 28.1417 %
63 04-03-2019 00:00:00 9.1575 C 27.8167 %
64 05-03-2019 00:00:00 6.32167 C 30.8917 %
65 06-03-2019 00:00:00 9.5125 C 32.3667 %
66 07-03-2019 00:00:00 9.61917 C 28.3833 %
67 08-03-2019 00:00:00 7.73167 C 28.8250 %
68 09-03-2019 00:00:00 10.01667 C 26.3333 %
69 10-03-2019 00:00:00 9.11083 C 30.1417 %
70 11-03-2019 00:00:00 4.19667 C 30.2417 %
71 12-03-2019 00:00:00 6.18083 C 27.8583 %
72 13-03-2019 00:00:00 5.6775 C 31.5250 %
73 14-03-2019 00:00:00 6.3325 C 38.0083 %
74 15-03-2019 00:00:00 9.61417 C 37.6917 %
75 16-03-2019 00:00:00 9.76833 C 35.9667 %
Sensor: Nr:Datum:Temp:Feuchte:
Aussen-T/F 76 17-03-2019 00:00:00 8.19083 C 26.8333 %
77 18-03-2019 00:00:00 4.3225 C 36.6583 %
78 19-03-2019 00:00:00 3.115 C 40.3583 %
79 20-03-2019 00:00:00 4.81417 C 37.4250 %
80 21-03-2019 00:00:00 6.76333 C 35.7167 %
81 22-03-2019 00:00:00 8.43083 C 34.0750 %
82 23-03-2019 00:00:00 5.40167 C 40.0083 %
83 24-03-2019 00:00:00 5.90583 C 38.2167 %
84 25-03-2019 00:00:00 4.41583 C 37.7583 %
85 26-03-2019 00:00:00 6.33417 C 32.9583 %
86 27-03-2019 00:00:00 6.36583 C 35.3083 %
87 28-03-2019 00:00:00 6.955 C 36.2417 %
88 29-03-2019 00:00:00 8.44167 C 38.7750 %
89 30-03-2019 00:00:00 10.07583 C 34.1833 %
90 31-03-2019 00:00:00 9.90957 C 33.8174 %
91 01-04-2019 00:00:00 8.9475 C 32.5750 %
92 02-04-2019 00:00:00 10.5425 C 29.3083 %
93 03-04-2019 00:00:00 7.865 C 38.6750 %
94 04-04-2019 00:00:00 5.56833 C 48.7000 %
95 05-04-2019 00:00:00 5.95417 C 48.0167 %
96 06-04-2019 00:00:00 9.88333 C 42.1917 %
97 07-04-2019 00:00:00 11.50833 C 36.8000 %
98 08-04-2019 00:00:00 12.34417 C 33.9167 %
99 09-04-2019 00:00:00 12.00333 C 40.7333 %
100 10-04-2019 00:00:00 10.585 C 23.8417 %
Sensor: Nr:Datum:Temp:Feuchte:
Aussen-T/F 101 11-04-2019 00:00:00 6.52917 C 25.0583 %
102 12-04-2019 00:00:00 4.68167 C 20.0000 %
103 13-04-2019 00:00:00 3.585 C 24.4167 %
104 14-04-2019 00:00:00 5.23833 C 34.7917 %
105 15-04-2019 00:00:00 10.29167 C 25.8000 %
106 16-04-2019 00:00:00 10.91333 C 23.2000 %
107 17-04-2019 00:00:00 12.4 C 35.6083 %
108 18-04-2019 00:00:00 13.7675 C 28.5500 %
109 19-04-2019 00:00:00 14.94917 C 24.5083 %
110 20-04-2019 00:00:00 14.60167 C 27.5833 %
111 21-04-2019 00:00:00 15.24333 C 24.6417 %
112 22-04-2019 00:00:00 14.7825 C 27.5667 %
113 23-04-2019 00:00:00 15.12667 C 20.1083 %
114 24-04-2019 00:00:00 15.10083 C 30.7083 %
115 25-04-2019 00:00:00 13.2425 C 38.0667 %
116 26-04-2019 00:00:00 11.8 C 32.0000 %
117 27-04-2019 00:00:00 9.01583 C 40.3667 %
118 28-04-2019 00:00:00 8.43333 C 30.9750 %
119 29-04-2019 00:00:00 8.62417 C 38.4083 %
120 30-04-2019 00:00:00 13.94583 C 26.0833 %
121 01-05-2019 00:00:00 13.03833 C 29.5000 %
122 02-05-2019 00:00:00 12.08333 C 31.3667 %
123 03-05-2019 00:00:00 11.20833 C 25.1500 %
124 04-05-2019 00:00:00 6.17583 C 33.4500 %
125 05-05-2019 00:00:00 6.66333 C 32.0417 %
Sensor: Nr:Datum:Temp:Feuchte:
Aussen-T/F 126 06-05-2019 00:00:00 7.6075 C 30.6583 %
127 07-05-2019 00:00:00 9.645 C 28.6167 %
128 08-05-2019 00:00:00 9.105 C 38.9750 %
129 09-05-2019 00:00:00 11.085 C 36.9583 %
130 10-05-2019 00:00:00 12.44538 C 33.3866 %
131 11-05-2019 00:00:00 9.52833 C 47.9417 %
132 12-05-2019 00:00:00 9.4 C 31.3083 %
133 13-05-2019 00:00:00 9.985 C 30.9083 %
134 14-05-2019 00:00:00 9.66333 C 26.4333 %
135 15-05-2019 00:00:00 10.57083 C 24.3500 %
136 16-05-2019 00:00:00 10.61167 C 23.0917 %
137 17-05-2019 00:00:00 11.4775 C 39.7250 %
138 18-05-2019 00:00:00 14.67167 C 39.3500 %
139 19-05-2019 00:00:00 15.91083 C 38.3750 %
140 20-05-2019 00:00:00 13.655 C 37.8667 %
141 21-05-2019 00:00:00 11.88167 C 45.6167 %
142 22-05-2019 00:00:00 13.2875 C 33.7833 %
143 23-05-2019 00:00:00 15.22667 C 33.1417 %
144 24-05-2019 00:00:00 17.24 C 28.7500 %
145 25-05-2019 00:00:00 15.89917 C 22.8167 %
146 26-05-2019 00:00:00 16.26667 C 29.2667 %
147 27-05-2019 00:00:00 14.66667 C 40.5417 %
148 28-05-2019 00:00:00 14.29917 C 38.6250 %
149 29-05-2019 00:00:00 15.28667 C 25.9000 %
150 30-05-2019 00:00:00 15.82833 C 28.8250 %
Sensor: Nr:Datum:Temp:Feuchte:
Aussen-T/F 151 31-05-2019 00:00:00 19.45583 C 30.4167 %
152 01-06-2019 00:00:00 20.21917 C 30.3583 %
153 02-06-2019 00:00:00 22.16417 C 30.0500 %
154 03-06-2019 00:00:00 21.1475 C 27.1667 %
155 04-06-2019 00:00:00 21.80333 C 28.3333 %
156 05-06-2019 00:00:00 23.57917 C 22.7833 %
157 06-06-2019 00:00:00 16.14167 C 28.3667 %
158 07-06-2019 00:00:00 16.10083 C 29.5250 %
159 08-06-2019 00:00:00 16.40917 C 20.2667 %
160 09-06-2019 00:00:00 16.72333 C 27.7667 %
161 10-06-2019 00:00:00 19.705 C 23.4750 %
162 11-06-2019 00:00:00 17.38 C 32.4667 %
163 12-06-2019 00:00:00 16.405 C 33.2917 %
164 13-06-2019 00:00:00 16.27917 C 34.4333 %
165 14-06-2019 00:00:00 18.17 C 35.6583 %
166 15-06-2019 00:00:00 19.72583 C 33.0250 %
167 16-06-2019 00:00:00 19.94417 C 24.9167 %
168 17-06-2019 00:00:00 19.5125 C 29.1250 %
169 18-06-2019 00:00:00 22.02333 C 27.1333 %
170 19-06-2019 00:00:00 22.62583 C 27.6917 %
171 20-06-2019 00:00:00 20 C 28.0167 %
172 21-06-2019 00:00:00 19.3425 C 27.3333 %
173 22-06-2019 00:00:00 19.82667 C 26.6167 %
174 23-06-2019 00:00:00 22.3125 C 27.3750 %
175 24-06-2019 00:00:00 24.96167 C 26.2167 %
Sensor: Nr:Datum:Temp:Feuchte:
Aussen-T/F 176 25-06-2019 00:00:00 26.83333 C 24.5583 %
177 26-06-2019 00:00:00 27.635 C 23.0833 %
178 27-06-2019 00:00:00 25.18917 C 20.6083 %
179 28-06-2019 00:00:00 22.44833 C 23.4333 %
180 29-06-2019 00:00:00 24.38417 C 22.1750 %
181 30-06-2019 00:00:00 26.0575 C 22.2333 %
182 01-07-2019 00:00:00 23.3825 C 20.0000 %
183 02-07-2019 00:00:00 19.63333 C 21.8667 %
184 03-07-2019 00:00:00 18.14583 C 22.9833 %
185 04-07-2019 00:00:00 18.95917 C 21.7583 %
186 05-07-2019 00:00:00 21.28 C 20.0000 %
187 06-07-2019 00:00:00 21.86 C 21.2917 %
188 07-07-2019 00:00:00 17.9975 C 24.5833 %
189 08-07-2019 00:00:00 14.77583 C 24.3917 %
190 09-07-2019 00:00:00 15.65583 C 24.6667 %
191 10-07-2019 00:00:00 17.64083 C 24.2083 %
192 11-07-2019 00:00:00 17.65083 C 31.2583 %
193 12-07-2019 00:00:00 17.16583 C 43.6333 %
194 13-07-2019 00:00:00 17.9575 C 34.1250 %
195 14-07-2019 00:00:00 17.12917 C 26.6667 %
196 15-07-2019 00:00:00 16.56667 C 21.0917 %
197 16-07-2019 00:00:00 16.26 C 28.0333 %
198 17-07-2019 00:00:00 17.56833 C 29.2083 %
199 18-07-2019 00:00:00 19.38333 C 28.1917 %
200 19-07-2019 00:00:00 20.12667 C 31.9750 %
Sensor: Nr:Datum:Temp:Feuchte:
Aussen-T/F 201 20-07-2019 00:00:00 21.81667 C 30.3083 %
202 21-07-2019 00:00:00 22.37333 C 25.8833 %
203 22-07-2019 00:00:00 22.7225 C 26.2833 %
204 23-07-2019 00:00:00 25.34083 C 25.5333 %
205 24-07-2019 00:00:00 27.1975 C 24.2750 %
206 25-07-2019 00:00:00 28.90167 C 21.7333 %
207 26-07-2019 00:00:00 27.54417 C 21.2500 %
208 27-07-2019 00:00:00 23.4375 C 26.6833 %
209 28-07-2019 00:00:00 19.93083 C 38.1333 %
210 29-07-2019 00:00:00 21.45583 C 29.3333 %
211 30-07-2019 00:00:00 22.35833 C 26.7167 %
212 31-07-2019 00:00:00 21.48417 C 20.5333 %
213 01-08-2019 00:00:00 19.83417 C 22.9750 %
214 02-08-2019 00:00:00 20.8775 C 22.8500 %
215 03-08-2019 00:00:00 20.77167 C 24.6333 %
216 04-08-2019 00:00:00 21.00667 C 28.3000 %
217 05-08-2019 00:00:00 22.56833 C 24.9167 %
218 06-08-2019 00:00:00 20.0075 C 30.3333 %
219 07-08-2019 00:00:00 19.10167 C 41.3833 %
220 08-08-2019 00:00:00 20.55667 C 30.6417 %
221 09-08-2019 00:00:00 19.73833 C 39.4583 %
222 10-08-2019 00:00:00 20.72917 C 37.6833 %
223 11-08-2019 00:00:00 17.03333 C 35.9000 %
224 12-08-2019 00:00:00 16.51583 C 38.9833 %
225 13-08-2019 00:00:00 16.10833 C 35.2833 %
Sensor: Nr:Datum:Temp:Feuchte:
Aussen-T/F 226 14-08-2019 00:00:00 16.6875 C 34.0417 %
227 15-08-2019 00:00:00 17.20583 C 40.0250 %
228 16-08-2019 00:00:00 17.84 C 34.2250 %
229 17-08-2019 00:00:00 17.89333 C 38.0750 %
230 18-08-2019 00:00:00 19.71833 C 44.5000 %
231 19-08-2019 00:00:00 18.45167 C 33.8417 %
232 20-08-2019 00:00:00 15.91167 C 33.3250 %
233 21-08-2019 00:00:00 16.52917 C 33.4750 %
234 22-08-2019 00:00:00 17.12333 C 32.3667 %
235 23-08-2019 00:00:00 18.31667 C 31.5083 %
236 24-08-2019 00:00:00 19.36333 C 30.9833 %
237 25-08-2019 00:00:00 21.54583 C 29.8917 %
238 26-08-2019 00:00:00 22.17 C 33.4833 %
239 27-08-2019 00:00:00 22.70333 C 35.1667 %
240 28-08-2019 00:00:00 23.4425 C 30.4583 %
241 29-08-2019 00:00:00 22.20333 C 28.3583 %
242 30-08-2019 00:00:00 21.07 C 29.2583 %
243 31-08-2019 00:00:00 21.975 C 30.7583 %
244 01-09-2019 00:00:00 18.8525 C 26.8333 %
245 02-09-2019 00:00:00 15.49333 C 28.2000 %
246 03-09-2019 00:00:00 15.72917 C 28.0833 %
247 04-09-2019 00:00:00 16.9525 C 33.9667 %
248 05-09-2019 00:00:00 15.59 C 26.2917 %
249 06-09-2019 00:00:00 13.58917 C 31.1917 %
250 07-09-2019 00:00:00 12.6975 C 39.5000 %
Sensor: Nr:Datum:Temp:Feuchte:
Aussen-T/F 251 08-09-2019 00:00:00 12.7439 C 48.5935 %
252 09-09-2019 00:00:00 15.23733 C 38.6667 %
253 10-09-2019 00:00:00 12.20486 C 22.8264 %
254 11-09-2019 00:00:00 13.35556 C 20.8472 %
255 12-09-2019 00:00:00 19.325 C 20.0000 %
256 13-09-2019 00:00:00 17.86806 C 20.1111 %
257 14-09-2019 00:00:00 15.93333 C 22.4375 %
258 15-09-2019 00:00:00 15.65694 C 21.2778 %
259 16-09-2019 00:00:00 16.21389 C 20.0000 %
260 17-09-2019 00:00:00 15.87708 C 20.0000 %
261 18-09-2019 00:00:00 11.47361 C 20.7917 %
262 19-09-2019 00:00:00 10.53333 C 21.8194 %
263 20-09-2019 00:00:00 10.80486 C 20.8472 %
264 21-09-2019 00:00:00 12.45278 C 20.6597 %
265 22-09-2019 00:00:00 14.78542 C 20.7500 %
266 23-09-2019 00:00:00 16.6875 C 22.1528 %
267 24-09-2019 00:00:00 13.94306 C 26.6319 %
268 25-09-2019 00:00:00 15.31806 C 25.0417 %
269 26-09-2019 00:00:00 16.10903 C 26.0000 %
270 27-09-2019 00:00:00 16.23333 C 23.7708 %
271 28-09-2019 00:00:00 15.40208 C 22.5833 %
272 29-09-2019 00:00:00 16.05972 C 21.6597 %
273 30-09-2019 00:00:00 15.48194 C 21.1319 %
274 01-10-2019 00:00:00 15.84375 C 23.4931 %
275 02-10-2019 00:00:00 12.57569 C 23.6111 %
Sensor: Nr:Datum:Temp:Feuchte:
Aussen-T/F 276 03-10-2019 00:00:00 9.35625 C 27.6944 %
277 04-10-2019 00:00:00 10.03681 C 31.8403 %
278 05-10-2019 00:00:00 10.32986 C 26.5903 %
279 06-10-2019 00:00:00 7.85764 C 34.1250 %
280 07-10-2019 00:00:00 9.80764 C 31.8819 %
281 08-10-2019 00:00:00 12.35833 C 31.0694 %
282 09-10-2019 00:00:00 11.56667 C 27.7431 %
283 10-10-2019 00:00:00 11.49097 C 26.2153 %
284 11-10-2019 00:00:00 12.41458 C 28.8194 %
285 12-10-2019 00:00:00 13.21111 C 29.6875 %
286 13-10-2019 00:00:00 16.35417 C 28.4722 %
287 14-10-2019 00:00:00 15.8125 C 27.6528 %
288 15-10-2019 00:00:00 13.94028 C 29.8611 %
289 16-10-2019 00:00:00 12.42153 C 29.2917 %
290 17-10-2019 00:00:00 14.32708 C 27.4167 %
291 18-10-2019 00:00:00 12.3125 C 29.7292 %
292 19-10-2019 00:00:00 12.78194 C 28.2083 %
293 20-10-2019 00:00:00 13.0875 C 34.7778 %
294 21-10-2019 00:00:00 13.30486 C 29.2014 %
295 22-10-2019 00:00:00 11.45 C 27.8819 %
296 23-10-2019 00:00:00 10.68403 C 31.1181 %
297 24-10-2019 00:00:00 13.85208 C 27.9236 %
298 25-10-2019 00:00:00 13.1625 C 24.9444 %
299 26-10-2019 00:00:00 12.72639 C 27.5417 %
300 27-10-2019 00:00:00 9.68467 C 30.8733 %
Sensor: Nr:Datum:Temp:Feuchte:
Aussen-T/F 301 28-10-2019 00:00:00 5.91597 C 35.2014 %
302 29-10-2019 00:00:00 6.21181 C 29.3264 %
303 30-10-2019 00:00:00 2.93333 C 34.5347 %
304 31-10-2019 00:00:00 1.41875 C 34.8333 %
305 01-11-2019 00:00:00 5.44792 C 36.7292 %
306 02-11-2019 00:00:00 12.8125 C 27.6458 %
307 03-11-2019 00:00:00 11.45069 C 29.7639 %
308 04-11-2019 00:00:00 9.88542 C 30.2153 %
309 05-11-2019 00:00:00 9.25069 C 27.4306 %
310 06-11-2019 00:00:00 8.33542 C 34.7014 %
311 07-11-2019 00:00:00 7.30278 C 33.8333 %
312 08-11-2019 00:00:00 4.29028 C 37.7153 %
313 09-11-2019 00:00:00 4.26806 C 33.1111 %
314 10-11-2019 00:00:00 2.51319 C 34.9861 %
315 11-11-2019 00:00:00 4.2 C 27.4792 %
316 12-11-2019 00:00:00 5.41667 C 25.4792 %
317 13-11-2019 00:00:00 4.93472 C 22.9861 %
318 14-11-2019 00:00:00 4.86042 C 26.9861 %
319 15-11-2019 00:00:00 4.08472 C 26.3333 %
320 16-11-2019 00:00:00 1.19444 C 38.8125 %
321 17-11-2019 00:00:00 2.39861 C 40.2708 %
322 18-11-2019 00:00:00 3.51667 C 36.2847 %
323 19-11-2019 00:00:00 3.06736 C 36.5833 %
324 20-11-2019 00:00:00 0.75972 C 37.8403 %
325 21-11-2019 00:00:00 1.18951 C 39.3846 %
Sensor: Nr:Datum:Temp:Feuchte:
Aussen-T/F 326 22-11-2019 00:00:00 3.65972 C 35.6806 %
327 23-11-2019 00:00:00 4.64653 C 33.3889 %
328 24-11-2019 00:00:00 1.99861 C 41.4722 %
329 25-11-2019 00:00:00 4.16319 C 39.3681 %
330 26-11-2019 00:00:00 7.75903 C 34.8472 %
331 27-11-2019 00:00:00 9.72083 C 30.6875 %
332 28-11-2019 00:00:00 10.55833 C 22.1319 %
333 29-11-2019 00:00:00 5.75486 C 30.7639 %
334 30-11-2019 00:00:00 0.48194 C 42.0972 %
335 01-12-2019 00:00:00 1.14236 C 33.0139 %
336 02-12-2019 00:00:00 1.20556 C 36.2986 %
337 03-12-2019 00:00:00 3.97431 C 39.2292 %
338 04-12-2019 00:00:00 0.41389 C 41.6111 %
339 05-12-2019 00:00:00 -2.03194 C 42.0972 %
340 06-12-2019 00:00:00 2.6125 C 34.4722 %
341 07-12-2019 00:00:00 8.20694 C 27.7292 %
342 08-12-2019 00:00:00 9.69931 C 24.2778 %
343 09-12-2019 00:00:00 7.09444 C 23.9722 %
344 10-12-2019 00:00:00 2.37361 C 34.0000 %
345 11-12-2019 00:00:00 3.12569 C 39.3056 %
346 12-12-2019 00:00:00 2.64931 C 37.2500 %
347 13-12-2019 00:00:00 3.25278 C 34.0069 %
348 14-12-2019 00:00:00 6.22222 C 28.0625 %
349 15-12-2019 00:00:00 7.24792 C 30.8958 %
350 16-12-2019 00:00:00 7.47361 C 39.2986 %
Sensor: Nr:Datum:Temp:Feuchte:
Aussen-T/F 351 17-12-2019 00:00:00 9.69514 C 31.9653 %
352 18-12-2019 00:00:00 6.95069 C 37.4792 %
353 19-12-2019 00:00:00 4.60972 C 40.5417 %
354 20-12-2019 00:00:00 6.87778 C 35.7847 %
355 21-12-2019 00:00:00 6.42778 C 32.4306 %
356 22-12-2019 00:00:00 7.57917 C 31.0556 %
357 23-12-2019 00:00:00 7.34861 C 28.6111 %
358 24-12-2019 00:00:00 7.20278 C 29.9097 %
359 25-12-2019 00:00:00 6.91944 C 32.8333 %
360 26-12-2019 00:00:00 4.25278 C 40.6250 %
361 27-12-2019 00:00:00 4.41181 C 36.8819 %
362 28-12-2019 00:00:00 -1.22431 C 42.5000 %
363 29-12-2019 00:00:00 -2.07708 C 39.8819 %
364 30-12-2019 00:00:00 -1.99931 C 39.1319 %
365 31-12-2019 00:00:00 -0.41736 C 39.5556 %
Sensor: Nr:Datum:Temp:Feuchte:
G-T/H 1 01-01-2019 00:00:00 9.65583 C 75.8167 %
2 02-01-2019 00:00:00 8.91333 C 73.4000 %
3 03-01-2019 00:00:00 7.65417 C 72.7000 %
4 04-01-2019 00:00:00 7.72667 C 73.7750 %
5 05-01-2019 00:00:00 8.26833 C 74.6083 %
6 06-01-2019 00:00:00 8.8 C 75.9250 %
7 07-01-2019 00:00:00 8.94 C 75.0167 %
8 08-01-2019 00:00:00 9.01833 C 74.5417 %
9 09-01-2019 00:00:00 8.46417 C 73.0417 %
10 10-01-2019 00:00:00 7.90083 C 71.3750 %
11 11-01-2019 00:00:00 7.57167 C 72.1167 %
12 12-01-2019 00:00:00 8.24417 C 74.2500 %
13 13-01-2019 00:00:00 8.91667 C 75.6333 %
14 14-01-2019 00:00:00 9.11083 C 74.7417 %
15 15-01-2019 00:00:00 8.33333 C 74.3833 %
16 16-01-2019 00:00:00 8.5125 C 74.7083 %
17 17-01-2019 00:00:00 8.4975 C 74.5500 %
18 18-01-2019 00:00:00 7.79333 C 72.6583 %
19 19-01-2019 00:00:00 6.99833 C 69.2000 %
20 20-01-2019 00:00:00 6.61083 C 64.8583 %
21 21-01-2019 00:00:00 6.18667 C 61.1750 %
22 22-01-2019 00:00:00 6.04833 C 60.2083 %
23 23-01-2019 00:00:00 6.2575 C 63.4917 %
24 24-01-2019 00:00:00 6.30833 C 65.6583 %
25 25-01-2019 00:00:00 6.2425 C 67.2833 %
Sensor: Nr:Datum:Temp:Feuchte:
G-T/H 26 26-01-2019 00:00:00 6.51833 C 71.7083 %
27 27-01-2019 00:00:00 7.75333 C 73.9667 %
28 28-01-2019 00:00:00 7.77417 C 74.2417 %
29 29-01-2019 00:00:00 7.46167 C 73.9917 %
30 30-01-2019 00:00:00 6.65667 C 69.5667 %
31 31-01-2019 00:00:00 6.54333 C 72.1667 %
32 01-02-2019 00:00:00 6.475 C 73.4167 %
33 02-02-2019 00:00:00 6.70083 C 74.6612 %
34 03-02-2019 00:00:00 6.98667 C 74.3417 %
35 04-02-2019 00:00:00 6.68333 C 73.8083 %
36 05-02-2019 00:00:00 7.12 C 74.5083 %
37 06-02-2019 00:00:00 6.9875 C 73.4333 %
38 07-02-2019 00:00:00 7.0025 C 74.8750 %
39 08-02-2019 00:00:00 7.93833 C 76.1083 %
40 09-02-2019 00:00:00 8.85917 C 76.1583 %
41 10-02-2019 00:00:00 9.2225 C 75.9667 %
42 11-02-2019 00:00:00 8.8125 C 75.1083 %
43 12-02-2019 00:00:00 8.09167 C 74.2167 %
44 13-02-2019 00:00:00 7.47583 C 73.5000 %
45 14-02-2019 00:00:00 6.95583 C 72.5083 %
46 15-02-2019 00:00:00 6.6825 C 71.6250 %
47 16-02-2019 00:00:00 6.53917 C 73.3083 %
48 17-02-2019 00:00:00 6.63667 C 74.1417 %
49 18-02-2019 00:00:00 6.65583 C 74.3000 %
50 19-02-2019 00:00:00 7.19417 C 75.8083 %
Sensor: Nr:Datum:Temp:Feuchte:
G-T/H 51 20-02-2019 00:00:00 7.495 C 75.5500 %
52 21-02-2019 00:00:00 7.76167 C 75.7333 %
53 22-02-2019 00:00:00 9.21417 C 77.2250 %
54 23-02-2019 00:00:00 9.20583 C 74.8917 %
55 24-02-2019 00:00:00 8.01917 C 72.1333 %
56 25-02-2019 00:00:00 7.5975 C 71.6250 %
57 26-02-2019 00:00:00 7.74083 C 71.5500 %
58 27-02-2019 00:00:00 6.63667 C 68.6917 %
59 28-02-2019 00:00:00 8.11917 C 73.1500 %
60 01-03-2019 00:00:00 9.37083 C 74.7583 %
61 02-03-2019 00:00:00 9.69333 C 72.8750 %
62 03-03-2019 00:00:00 10.36917 C 73.5083 %
63 04-03-2019 00:00:00 10.60917 C 73.1083 %
64 05-03-2019 00:00:00 9.71 C 71.6083 %
65 06-03-2019 00:00:00 9.71 C 73.4333 %
66 07-03-2019 00:00:00 10.48417 C 73.6500 %
67 08-03-2019 00:00:00 10.0575 C 72.7250 %
68 09-03-2019 00:00:00 10.17167 C 73.4333 %
69 10-03-2019 00:00:00 10.60917 C 71.4667 %
70 11-03-2019 00:00:00 9.44833 C 67.3667 %
71 12-03-2019 00:00:00 8.92417 C 70.4667 %
72 13-03-2019 00:00:00 9.345 C 71.3250 %
73 14-03-2019 00:00:00 9.13333 C 72.3750 %
74 15-03-2019 00:00:00 10.055 C 74.0583 %
75 16-03-2019 00:00:00 10.57417 C 72.1333 %
Sensor: Nr:Datum:Temp:Feuchte:
G-T/H 76 17-03-2019 00:00:00 9.70583 C 61.2083 %
77 18-03-2019 00:00:00 6.8675 C 62.4667 %
78 19-03-2019 00:00:00 6.02333 C 59.7583 %
79 20-03-2019 00:00:00 7.52333 C 64.5167 %
80 21-03-2019 00:00:00 9.29167 C 60.4917 %
81 22-03-2019 00:00:00 10.14833 C 61.3250 %
82 23-03-2019 00:00:00 10.15917 C 64.7250 %
83 24-03-2019 00:00:00 9.54833 C 67.2167 %
84 25-03-2019 00:00:00 9.15583 C 67.9000 %
85 26-03-2019 00:00:00 9.0525 C 69.7250 %
86 27-03-2019 00:00:00 9.47917 C 69.9333 %
87 28-03-2019 00:00:00 9.49583 C 69.9417 %
88 29-03-2019 00:00:00 10.2825 C 66.2583 %
89 30-03-2019 00:00:00 9.79667 C 60.6083 %
90 31-03-2019 00:00:00 11.2313 C 64.9130 %
91 01-04-2019 00:00:00 11.50333 C 60.3833 %
92 02-04-2019 00:00:00 11.2875 C 63.6333 %
93 03-04-2019 00:00:00 11.49833 C 67.0000 %
94 04-04-2019 00:00:00 10.56333 C 67.8833 %
95 05-04-2019 00:00:00 9.87333 C 68.5417 %
96 06-04-2019 00:00:00 10.76333 C 69.0417 %
97 07-04-2019 00:00:00 11.4925 C 68.0667 %
98 08-04-2019 00:00:00 12.30917 C 70.6833 %
99 09-04-2019 00:00:00 12.2875 C 74.7333 %
100 10-04-2019 00:00:00 12.35917 C 56.9917 %
Sensor: Nr:Datum:Temp:Feuchte:
G-T/H 101 11-04-2019 00:00:00 10.73083 C 48.4917 %
102 12-04-2019 00:00:00 9.57417 C 46.6333 %
103 13-04-2019 00:00:00 9.48583 C 55.2583 %
104 14-04-2019 00:00:00 9.175 C 58.5167 %
105 15-04-2019 00:00:00 10.07667 C 62.0833 %
106 16-04-2019 00:00:00 11.07083 C 62.2083 %
107 17-04-2019 00:00:00 12.33417 C 65.8333 %
108 18-04-2019 00:00:00 13.09417 C 62.0833 %
109 19-04-2019 00:00:00 14.9125 C 51.5500 %
110 20-04-2019 00:00:00 15.6775 C 48.0417 %
111 21-04-2019 00:00:00 16.29 C 47.3167 %
112 22-04-2019 00:00:00 15.22333 C 52.2417 %
113 23-04-2019 00:00:00 15.61417 C 53.2333 %
114 24-04-2019 00:00:00 15.37833 C 59.4167 %
115 25-04-2019 00:00:00 14.5575 C 61.5833 %
116 26-04-2019 00:00:00 14.28667 C 64.1250 %
117 27-04-2019 00:00:00 13.445 C 64.1833 %
118 28-04-2019 00:00:00 12.45 C 64.1833 %
119 29-04-2019 00:00:00 11.95083 C 63.4083 %
120 30-04-2019 00:00:00 13.89833 C 57.8083 %
121 01-05-2019 00:00:00 14.135 C 60.2833 %
122 02-05-2019 00:00:00 13.82333 C 62.1750 %
123 03-05-2019 00:00:00 13.86417 C 59.4750 %
124 04-05-2019 00:00:00 12.72083 C 59.0083 %
125 05-05-2019 00:00:00 11.31667 C 59.7917 %
Sensor: Nr:Datum:Temp:Feuchte:
G-T/H 126 06-05-2019 00:00:00 11.38833 C 61.2833 %
127 07-05-2019 00:00:00 11.88083 C 62.6250 %
128 08-05-2019 00:00:00 11.97 C 62.9333 %
129 09-05-2019 00:00:00 12.35167 C 66.7333 %
130 10-05-2019 00:00:00 12.92101 C 67.6218 %
131 11-05-2019 00:00:00 13.15833 C 68.0833 %
132 12-05-2019 00:00:00 12.12833 C 64.0833 %
133 13-05-2019 00:00:00 12.045 C 60.0000 %
134 14-05-2019 00:00:00 12.31083 C 59.7417 %
135 15-05-2019 00:00:00 12.7725 C 52.9833 %
136 16-05-2019 00:00:00 13.015 C 56.6333 %
137 17-05-2019 00:00:00 13.21917 C 63.1000 %
138 18-05-2019 00:00:00 14.04667 C 66.4250 %
139 19-05-2019 00:00:00 14.825 C 68.0750 %
140 20-05-2019 00:00:00 14.84583 C 68.8000 %
141 21-05-2019 00:00:00 14.15167 C 70.0167 %
142 22-05-2019 00:00:00 13.71167 C 69.7583 %
143 23-05-2019 00:00:00 15.29917 C 61.3750 %
144 24-05-2019 00:00:00 17.54 C 55.6333 %
145 25-05-2019 00:00:00 17.29083 C 56.6250 %
146 26-05-2019 00:00:00 16.44583 C 60.8167 %
147 27-05-2019 00:00:00 16.3925 C 64.3917 %
148 28-05-2019 00:00:00 15.71583 C 66.5333 %
149 29-05-2019 00:00:00 16.0475 C 54.4250 %
150 30-05-2019 00:00:00 15.75417 C 61.4167 %
Sensor: Nr:Datum:Temp:Feuchte:
G-T/H 151 31-05-2019 00:00:00 17.74167 C 65.2667 %
152 01-06-2019 00:00:00 18.025 C 65.0750 %
153 02-06-2019 00:00:00 18.60667 C 66.0917 %
154 03-06-2019 00:00:00 19.92333 C 65.8667 %
155 04-06-2019 00:00:00 19.69667 C 66.1500 %
156 05-06-2019 00:00:00 20.025 C 66.6917 %
157 06-06-2019 00:00:00 19.2775 C 64.1917 %
158 07-06-2019 00:00:00 17.86583 C 60.1250 %
159 08-06-2019 00:00:00 17.565 C 60.2333 %
160 09-06-2019 00:00:00 16.99667 C 61.5667 %
161 10-06-2019 00:00:00 17.96333 C 64.8583 %
162 11-06-2019 00:00:00 18.18333 C 66.3917 %
163 12-06-2019 00:00:00 17.70333 C 67.3917 %
164 13-06-2019 00:00:00 17.89167 C 58.1667 %
165 14-06-2019 00:00:00 19.59083 C 60.6083 %
166 15-06-2019 00:00:00 19.6625 C 64.9917 %
167 16-06-2019 00:00:00 19.56917 C 62.4417 %
168 17-06-2019 00:00:00 19.01167 C 62.8417 %
169 18-06-2019 00:00:00 21.23667 C 58.9250 %
170 19-06-2019 00:00:00 21.53167 C 61.1000 %
171 20-06-2019 00:00:00 20.7375 C 63.5667 %
172 21-06-2019 00:00:00 20.53083 C 52.5000 %
173 22-06-2019 00:00:00 20.16917 C 54.8083 %
174 23-06-2019 00:00:00 21.31917 C 57.1667 %
175 24-06-2019 00:00:00 23.94167 C 55.3000 %
Sensor: Nr:Datum:Temp:Feuchte:
G-T/H 176 25-06-2019 00:00:00 23.93083 C 58.5083 %
177 26-06-2019 00:00:00 24.37417 C 62.9417 %
178 27-06-2019 00:00:00 23.60667 C 60.8333 %
179 28-06-2019 00:00:00 22.21417 C 58.6667 %
180 29-06-2019 00:00:00 24.105 C 45.4667 %
181 30-06-2019 00:00:00 23.46833 C 52.6667 %
182 01-07-2019 00:00:00 23.14417 C 56.9333 %
183 02-07-2019 00:00:00 21.5975 C 49.7667 %
184 03-07-2019 00:00:00 20.46667 C 46.5000 %
185 04-07-2019 00:00:00 20.24 C 44.2750 %
186 05-07-2019 00:00:00 20.99583 C 47.4667 %
187 06-07-2019 00:00:00 21.055 C 53.0250 %
188 07-07-2019 00:00:00 20.39667 C 54.9083 %
189 08-07-2019 00:00:00 18.37167 C 51.1250 %
190 09-07-2019 00:00:00 18.10583 C 49.1417 %
191 10-07-2019 00:00:00 18.91917 C 42.0333 %
192 11-07-2019 00:00:00 18.91167 C 59.7083 %
193 12-07-2019 00:00:00 18.3025 C 73.7917 %
194 13-07-2019 00:00:00 18.47333 C 67.7417 %
195 14-07-2019 00:00:00 18.46917 C 65.0917 %
196 15-07-2019 00:00:00 18.2725 C 59.6250 %
197 16-07-2019 00:00:00 17.95917 C 58.3667 %
198 17-07-2019 00:00:00 18.23667 C 61.2917 %
199 18-07-2019 00:00:00 19.79417 C 58.3083 %
200 19-07-2019 00:00:00 19.79417 C 61.5917 %
Sensor: Nr:Datum:Temp:Feuchte:
G-T/H 201 20-07-2019 00:00:00 19.78583 C 63.8500 %
202 21-07-2019 00:00:00 20.41333 C 63.8583 %
203 22-07-2019 00:00:00 22.33167 C 54.5167 %
204 23-07-2019 00:00:00 22.5225 C 56.8667 %
205 24-07-2019 00:00:00 23.21833 C 58.3417 %
206 25-07-2019 00:00:00 24.345 C 57.0083 %
207 26-07-2019 00:00:00 24.17667 C 57.8500 %
208 27-07-2019 00:00:00 23.54 C 61.3083 %
209 28-07-2019 00:00:00 22.08333 C 64.8167 %
210 29-07-2019 00:00:00 21.58833 C 59.7917 %
211 30-07-2019 00:00:00 21.785 C 58.7750 %
212 31-07-2019 00:00:00 22.4025 C 50.4333 %
213 01-08-2019 00:00:00 21.77083 C 49.7000 %
214 02-08-2019 00:00:00 21.34583 C 55.7750 %
215 03-08-2019 00:00:00 20.90667 C 59.1167 %
216 04-08-2019 00:00:00 20.4525 C 59.4750 %
217 05-08-2019 00:00:00 22.07 C 57.0167 %
218 06-08-2019 00:00:00 21.48083 C 59.7417 %
219 07-08-2019 00:00:00 21.08 C 63.1500 %
220 08-08-2019 00:00:00 20.60333 C 62.6167 %
221 09-08-2019 00:00:00 20.50167 C 64.6000 %
222 10-08-2019 00:00:00 20.38917 C 65.0917 %
223 11-08-2019 00:00:00 19.8725 C 64.3750 %
224 12-08-2019 00:00:00 19.0475 C 65.6000 %
225 13-08-2019 00:00:00 18.645 C 58.8417 %
Sensor: Nr:Datum:Temp:Feuchte:
G-T/H 226 14-08-2019 00:00:00 18.54583 C 57.0833 %
227 15-08-2019 00:00:00 18.91583 C 62.6250 %
228 16-08-2019 00:00:00 18.59917 C 65.5583 %
229 17-08-2019 00:00:00 18.78167 C 67.1583 %
230 18-08-2019 00:00:00 19.07417 C 68.7167 %
231 19-08-2019 00:00:00 19.70167 C 61.8833 %
232 20-08-2019 00:00:00 18.7775 C 58.6500 %
233 21-08-2019 00:00:00 18.37 C 62.6500 %
234 22-08-2019 00:00:00 18.7725 C 58.7167 %
235 23-08-2019 00:00:00 19.34333 C 56.0250 %
236 24-08-2019 00:00:00 19.1825 C 58.5917 %
237 25-08-2019 00:00:00 19.53 C 63.3500 %
238 26-08-2019 00:00:00 21.84417 C 64.5833 %
239 27-08-2019 00:00:00 21.31417 C 66.1667 %
240 28-08-2019 00:00:00 21.07 C 66.6583 %
241 29-08-2019 00:00:00 21.03417 C 66.8417 %
242 30-08-2019 00:00:00 20.6775 C 66.8917 %
243 31-08-2019 00:00:00 20.2775 C 66.5917 %
244 01-09-2019 00:00:00 20.59167 C 65.4167 %
245 02-09-2019 00:00:00 18.59583 C 51.3417 %
246 03-09-2019 00:00:00 16.5475 C 53.5583 %
247 04-09-2019 00:00:00 18.68667 C 56.9667 %
248 05-09-2019 00:00:00 18.34667 C 60.0000 %
249 06-09-2019 00:00:00 17.44333 C 56.1750 %
250 07-09-2019 00:00:00 17.36583 C 60.4417 %
Sensor: Nr:Datum:Temp:Feuchte:
G-T/H 251 08-09-2019 00:00:00 16.54309 C 65.9350 %
252 09-09-2019 00:00:00 16.06067 C 66.7333 %
253 10-09-2019 00:00:00 15.23333 C 63.6597 %
254 11-09-2019 00:00:00 15.74097 C 61.0833 %
255 12-09-2019 00:00:00 17.93194 C 67.6319 %
256 13-09-2019 00:00:00 18.68472 C 70.9653 %
257 14-09-2019 00:00:00 18.01181 C 65.5903 %
258 15-09-2019 00:00:00 17.60347 C 61.9722 %
259 16-09-2019 00:00:00 17.78264 C 60.7361 %
260 17-09-2019 00:00:00 17.67431 C 62.7083 %
261 18-09-2019 00:00:00 15.39444 C 57.2778 %
262 19-09-2019 00:00:00 14.12361 C 57.3125 %
263 20-09-2019 00:00:00 13.22639 C 59.3056 %
264 21-09-2019 00:00:00 15.10833 C 52.5278 %
265 22-09-2019 00:00:00 15.13194 C 59.2083 %
266 23-09-2019 00:00:00 16.27153 C 64.4028 %
267 24-09-2019 00:00:00 16.11528 C 66.2778 %
268 25-09-2019 00:00:00 16.20556 C 67.8681 %
269 26-09-2019 00:00:00 16.33542 C 69.4097 %
270 27-09-2019 00:00:00 16.76458 C 69.3611 %
271 28-09-2019 00:00:00 16.47083 C 68.9792 %
272 29-09-2019 00:00:00 16.41458 C 69.6528 %
273 30-09-2019 00:00:00 16.64236 C 66.7917 %
274 01-10-2019 00:00:00 16.54167 C 68.3542 %
275 02-10-2019 00:00:00 16.15694 C 67.3056 %
Sensor: Nr:Datum:Temp:Feuchte:
G-T/H 276 03-10-2019 00:00:00 14.67222 C 66.7361 %
277 04-10-2019 00:00:00 14.15556 C 70.1319 %
278 05-10-2019 00:00:00 14.31875 C 71.1667 %
279 06-10-2019 00:00:00 13.69306 C 70.7847 %
280 07-10-2019 00:00:00 13.58056 C 72.7153 %
281 08-10-2019 00:00:00 14.14097 C 74.1597 %
282 09-10-2019 00:00:00 14.23472 C 74.0486 %
283 10-10-2019 00:00:00 14.00139 C 74.0278 %
284 11-10-2019 00:00:00 13.98819 C 74.3333 %
285 12-10-2019 00:00:00 14.71181 C 71.7639 %
286 13-10-2019 00:00:00 15.13472 C 74.9097 %
287 14-10-2019 00:00:00 16.34722 C 74.3958 %
288 15-10-2019 00:00:00 15.98125 C 73.6597 %
289 16-10-2019 00:00:00 15.42708 C 73.2986 %
290 17-10-2019 00:00:00 15.28056 C 74.7292 %
291 18-10-2019 00:00:00 15.18681 C 74.6042 %
292 19-10-2019 00:00:00 14.72222 C 74.1944 %
293 20-10-2019 00:00:00 14.40278 C 81.1597 %
294 21-10-2019 00:00:00 14.60625 C 80.9028 %
295 22-10-2019 00:00:00 14.62153 C 77.5000 %
296 23-10-2019 00:00:00 14.00764 C 76.3542 %
297 24-10-2019 00:00:00 14.52986 C 78.0139 %
298 25-10-2019 00:00:00 15.10694 C 74.8681 %
299 26-10-2019 00:00:00 14.99028 C 74.2153 %
300 27-10-2019 00:00:00 14.43933 C 74.9333 %
Sensor: Nr:Datum:Temp:Feuchte:
G-T/H 301 28-10-2019 00:00:00 12.81389 C 71.1806 %
302 29-10-2019 00:00:00 12.35556 C 71.6389 %
303 30-10-2019 00:00:00 10.98611 C 65.8194 %
304 31-10-2019 00:00:00 9.49097 C 64.1736 %
305 01-11-2019 00:00:00 9.67014 C 69.2569 %
306 02-11-2019 00:00:00 12.01181 C 74.2222 %
307 03-11-2019 00:00:00 12.91806 C 75.4861 %
308 04-11-2019 00:00:00 12.97569 C 75.6250 %
309 05-11-2019 00:00:00 12.58194 C 75.9444 %
310 06-11-2019 00:00:00 12.33194 C 75.6528 %
311 07-11-2019 00:00:00 12.18403 C 75.3403 %
312 08-11-2019 00:00:00 11.13611 C 70.1181 %
313 09-11-2019 00:00:00 11.02014 C 69.0972 %
314 10-11-2019 00:00:00 9.95556 C 68.3056 %
315 11-11-2019 00:00:00 9.96458 C 71.2708 %
316 12-11-2019 00:00:00 10.11458 C 72.0972 %
317 13-11-2019 00:00:00 10.0125 C 72.4097 %
318 14-11-2019 00:00:00 9.73403 C 68.3958 %
319 15-11-2019 00:00:00 9.68819 C 69.4028 %
320 16-11-2019 00:00:00 9.6125 C 68.7083 %
321 17-11-2019 00:00:00 9.03819 C 69.9306 %
322 18-11-2019 00:00:00 9.47361 C 72.2500 %
323 19-11-2019 00:00:00 9.40903 C 72.0833 %
324 20-11-2019 00:00:00 8.93333 C 71.1181 %
325 21-11-2019 00:00:00 8.40559 C 70.8182 %
Sensor: Nr:Datum:Temp:Feuchte:
G-T/H 326 22-11-2019 00:00:00 8.70556 C 72.6736 %
327 23-11-2019 00:00:00 9.32569 C 73.0972 %
328 24-11-2019 00:00:00 9.08333 C 72.0764 %
329 25-11-2019 00:00:00 9.04375 C 73.5069 %
330 26-11-2019 00:00:00 9.85139 C 74.9375 %
331 27-11-2019 00:00:00 10.87847 C 75.9236 %
332 28-11-2019 00:00:00 11.51597 C 75.5069 %
333 29-11-2019 00:00:00 11.25208 C 72.3542 %
334 30-11-2019 00:00:00 9.66736 C 68.9097 %
335 01-12-2019 00:00:00 8.81806 C 70.1806 %
336 02-12-2019 00:00:00 8.35278 C 70.5417 %
337 03-12-2019 00:00:00 8.74514 C 73.3472 %
338 04-12-2019 00:00:00 8.79375 C 71.8403 %
339 05-12-2019 00:00:00 7.92014 C 69.1458 %
340 06-12-2019 00:00:00 7.57292 C 70.7014 %
341 07-12-2019 00:00:00 8.97014 C 74.4514 %
342 08-12-2019 00:00:00 10.25694 C 75.1667 %
343 09-12-2019 00:00:00 10.48403 C 74.1111 %
344 10-12-2019 00:00:00 9.34028 C 71.5903 %
345 11-12-2019 00:00:00 8.75694 C 73.1250 %
346 12-12-2019 00:00:00 8.81042 C 73.2500 %
347 13-12-2019 00:00:00 8.51944 C 72.1458 %
348 14-12-2019 00:00:00 8.92153 C 73.0764 %
349 15-12-2019 00:00:00 9.56736 C 74.6667 %
350 16-12-2019 00:00:00 9.90486 C 75.1389 %
Sensor: Nr:Datum:Temp:Feuchte:
G-T/H 351 17-12-2019 00:00:00 10.43333 C 75.4583 %
352 18-12-2019 00:00:00 10.925 C 75.4861 %
353 19-12-2019 00:00:00 9.76667 C 73.6667 %
354 20-12-2019 00:00:00 9.69375 C 75.0208 %
355 21-12-2019 00:00:00 10.06458 C 74.5833 %
356 22-12-2019 00:00:00 10.1375 C 75.1528 %
357 23-12-2019 00:00:00 10.30417 C 75.3681 %
358 24-12-2019 00:00:00 10.12639 C 74.9375 %
359 25-12-2019 00:00:00 10.24444 C 75.9653 %
360 26-12-2019 00:00:00 9.92708 C 75.2569 %
361 27-12-2019 00:00:00 9.69444 C 75.5833 %
362 28-12-2019 00:00:00 8.37639 C 70.3194 %
363 29-12-2019 00:00:00 7.21528 C 69.6875 %
364 30-12-2019 00:00:00 7.16944 C 69.0486 %
365 31-12-2019 00:00:00 6.93194 C 69.9722 %

Maximal/Minimal-Werte vom 01.01.2019 - 31.12.2019

Sensor Min Max Avg
Temp
(Aussen-T/F)
-10.2 °C
22-01-2019  06:27:17
40.5 °C
25-07-2019  16:18:17
10.9 °C
Feuchte
(Aussen-T/F)
20 %
02-01-2019  14:38:18
75 %
01-02-2019  23:52:17
32.53 %
Temp
(G-T/H)
3.3 °C
19-03-2019  05:31:17
29.4 °C
29-06-2019  19:28:17
13.53 °C
Feuchte
(G-T/H)
25 %
29-06-2019  18:04:17
83 %
20-10-2019  15:57:17
66.77 %

Die Daten stammen von einer Davis Vantage Pro 2 Wetter-Station und werden unter Linux mit der Software wview2wettercgi und aufbereitet. Alle Angaben erfolgen ohne Gewähr für ihre Vollständigkeit oder Richtigkeit.
Kontakt: Rainer Krienke krienke@uni-koblenz.de . Meine Webseiten an der Uni Koblenz oder privat.
Version: $Revision: 0.78 $